CAPE
0 0 0 0 0 0 0 4 5 0 0 0 0 0 0 0 0 0 0 0 0 0 0 0 0 0 0 0 0 1003 2131 2323 2025 1870 1723 1577 1399 1125 792 657 545 482 599 759
21 19 0 0 0 0 0 1 5 3 2 0 0 3 3 0 0 0 0 0 0 0 0 0 0 0 0 0 0 447 1965 2289 1972 1832 1579 1479 1391 906 493 316 356 583 660 798
44 0 0 0 0 0 0 0 8 0 0 0 0 0 0 0 0 0 0 0 0 0 0 0 0 0 17 12 37 4 554 2125 1896 1576 1214 1145 797 424 349 467 335 372 539 461
25 12 25 0 0 0 2 0 18 0 0 0 0 0 0 0 0 0 0 0 0 0 0 0 0 0 1 24 85 6 69 1152 1802 1399 1026 882 810 501 345 451 224 301 306 425
0 15 44 1 0 0 0 9 3 0 0 0 0 0 0 0 0 0 0 2 0 0 0 0 0 0 0 0 0 71 23 336 1318 1505 1075 1003 1235 755 319 441 292 188 447 308
0 17 46 0 5 0 3 0 0 0 0 7 0 0 0 0 0 8 39 0 3 19 16 16 9 20 11 0 0 0 75 74 662 1512 1255 1255 1247 938 626 607 307 216 177 259
0 7 6 6 10 11 0 2 13 19 7 0 0 0 0 15 49 107 39 55 23 26 10 2 2 1 10 67 134 0 0 29 283 1464 1385 1344 1471 1135 810 637 450 164 134 116
1 76 53 34 22 0 0 0 24 8 1 0 0 0 0 26 133 99 126 113 22 1 0 0 0 0 0 0 1 0 0 9 165 1167 1532 1254 1647 1061 1006 791 411 118 99 44
64 42 18 94 3 9 2 6 0 0 12 41 0 86 8 53 140 157 113 72 6 0 0 0 0 0 0 0 0 0 0 0 80 771 1459 1276 1403 993 1170 698 433 339 144 18
35 141 35 105 28 9 40 9 15 8 80 50 6 27 111 17 42 75 105 18 0 0 0 0 0 0 0 0 0 0 114 0 312 1090 1268 1421 1235 1227 1050 648 543 355 158 9
0 11 29 4 15 28 33 27 17 20 15 14 52 144 15 5 0 71 10 2 0 0 0 0 0 0 0 0 0 1 520 698 1109 1212 1074 1082 996 1038 1006 621 433 354 14 0
15 19 49 16 26 20 2 4 6 68 16 29 5 14 5 84 63 17 1 1 0 0 1 2 0 0 0 0 1 1 1 180 396 582 354 550 677 819 660 473 413 75 1 0
37 3 31 14 0 3 16 25 59 16 3 61 103 29 16 7 5 4 3 5 3 3 4 7 4 1 0 1 2 1 4 0 1 27 83 269 588 621 490 289 229 32 0 2
114 23 15 52 9 44 36 43 29 48 63 46 43 63 5 11 9 9 6 3 3 5 5 4 9 8 3 1 5 4 4 4 0 1 43 221 348 461 308 233 19 0 2 4
0 26 3 6 54 59 4 29 63 61 8 28 34 15 8 9 8 8 5 3 3 6 7 6 5 9 7 2 5 5 5 5 2 2 4 104 206 217 229 146 0 1 3 5
0 0 0 0 0 24 0 0 1 28 53 41 92 35 2 2 0 5 7 6 7 11 11 6 5 3 7 3 1 8 6 5 4 2 2 2 1 0 1 0 0 0 1 3
0 1 0 0 0 0 0 3 9 3 3 4 18 22 1 2 5 8 7 7 14 18 17 11 9 5 4 7 1 5 6 3 2 3 3 2 2 1 1 0 0 0 0 7
0 0 0 0 0 9 0 24 0 4 9 10 8 12 4 5 10 9 19 14 11 19 16 10 3 2 2 3 6 2 3 2 2 3 2 3 4 4 3 2 1 1 1 1
10 27 24 31 0 0 15 0 0 4 14 12 9 1 8 16 5 6 16 17 15 13 15 14 6 1 2 3 4 3 1 1 1 2 3 2 3 4 3 5 3 2 1 1
34 99 106 72 7 21 4 0 0 0 9 11 2 5 4 0 11 6 13 13 6 5 7 2 0 0 0 2 3 1 0 0 0 0 1 3 3 2 2 1 1 3 2 1
47 42 80 69 27 7 3 0 0 11 12 22 6 8 5 5 9 16 14 8 5 10 5 0 0 1 2 1 3 2 2 1 1 3 1 1 2 3 3 1 0 3 1 1
0 13 5 4 9 2 2 0 1 14 24 22 7 7 8 8 6 8 9 9 3 2 0 0 0 1 1 0 0 2 2 1 1 5 3 3 2 2 1 0 2 2 2 0
5 9 3 4 11 10 4 11 8 5 9 8 5 4 9 5 5 8 5 1 0 0 0 0 0 0 1 1 0 0 0 3 1 0 2 5 3 4 5 2 1 1 1 3
18 6 8 5 11 7 9 6 3 4 5 4 1 1 1 0 1 1 1 0 0 0 0 0 0 0 2 3 3 1 0 1 5 5 1 2 2 1 1 2 2 1 0 1
4 3 0 5 10 4 2 2 1 1 1 0 0 0 0 0 0 0 0 0 0 0 0 0 2 2 1 2 5 4 2 0 4 2 4 5 0 0 2 3 3 4 2 2
3 3 4 4 16 4 5 0 0 2 0 0 0 0 0 0 0 0 0 0 0 0 0 1 1 1 1 2 3 8 3 6 2 4 6 2 8 6 0 0 1 3 3 4
CIN
0 0 0 0 0 0 0 -0 -1 0 0 0 0 0 0 0 0 0 0 0 0 0 0 0 0 0 0 0 0 -58 -101 -123 -135 -102 -67 -62 -95 -125 -161 -128 -162 -178 -112 -39
-2 0 0 0 0 0 0 -8 -1 -2 -9 0 0 -3 -3 0 0 0 0 0 0 0 0 0 0 0 0 0 0 -85 -75 -78 -109 -107 -91 -61 -61 -210 -240 -244 -184 -123 -104 -31
-0 0 0 0 0 0 0 0 -1 0 0 0 0 0 0 0 0 0 0 0 0 0 0 0 0 0 -80 -90 -113 -47 -67 -45 -83 -119 -105 -70 -139 -283 -255 -228 -222 -194 -131 -94
-1 -0 -1 0 0 0 0 -0 -1 0 0 0 0 0 0 0 0 0 0 0 0 0 0 0 0 0 -11 -78 -125 -83 -89 -54 -44 -105 -131 -106 -184 -299 -331 -251 -271 -223 -196 -111
0 -23 -2 -6 0 0 0 -2 -15 0 0 0 0 0 0 0 0 0 0 -19 0 0 0 0 0 0 0 0 0 -159 -93 -51 -38 -82 -124 -115 -58 -201 -317 -217 -274 -239 -178 -157
0 -8 -24 0 -7 0 -3 0 -1 0 0 -0 0 0 0 0 0 -11 -10 0 -0 -10 -23 -27 -43 -31 -66 0 0 0 -109 -87 -46 -49 -123 -62 -55 -116 -208 -205 -280 -265 -244 -207
0 -3 -185 -2 -5 -3 -0 -2 -1 -0 -1 0 0 0 0 -17 -7 -2 -5 -15 -19 -36 -59 -60 -26 -36 -87 -201 -142 0 0 -29 -76 -47 -90 -57 -27 -62 -139 -187 -239 -319 -283 -249
0 -2 -22 -3 -2 -0 0 0 -2 -0 0 0 0 -1 0 -5 -1 -26 -11 -8 -24 -5 -8 0 0 0 0 0 -28 0 0 -11 -63 -42 -41 -65 -6 -69 -67 -125 -247 -342 -350 -298
-2 -5 -37 -1 -1 -4 0 -0 -1 0 -3 -6 -0 -1 -8 -13 -1 -2 -0 -10 -12 -0 0 0 0 0 0 0 0 0 0 0 -75 -38 -35 -37 -14 -53 -27 -129 -204 -209 -351 -344
-10 -2 -23 -10 -44 -3 -9 -2 -1 -1 0 -0 -2 -1 -12 -19 -11 -1 -8 -21 -1 0 0 0 0 0 0 0 0 0 -193 0 -46 -32 -42 -23 -15 -12 -31 -122 -136 -174 -320 -260
0 -6 -17 -3 -5 -0 -24 -0 -5 -6 0 -2 -3 -0 0 -0 0 -2 -26 -0 0 0 0 0 0 0 0 0 0 0 -86 -28 -57 -69 -58 -42 -28 -31 -22 -103 -147 -182 -286 0
-6 -9 -1 -27 -1 -1 -1 -0 -8 -0 -0 -1 0 -1 -4 -2 -1 -27 0 0 0 0 0 0 -0 0 0 0 0 0 -1 -151 -119 -98 -140 -113 -66 -30 -41 -107 -133 -374 -228 0
-13 -13 -1 -0 -6 -3 -14 -4 -1 -3 -13 -3 -0 -0 -0 0 0 0 0 0 0 0 0 0 0 0 0 0 0 0 0 -43 -76 -157 -165 -103 -39 -31 -62 -161 -212 -383 -1 -7
-28 -12 -6 -0 -3 -2 -3 -8 -2 -3 -0 -4 -13 -1 0 0 0 0 0 0 0 0 0 0 0 0 0 0 0 0 0 0 0 -11 -138 -99 -69 -56 -105 -148 -342 -4 -14 -8
0 -18 -2 0 -7 -1 -4 -1 -1 -5 -0 -11 -3 0 0 0 0 0 0 0 0 0 0 0 0 0 0 0 0 0 0 0 0 0 -40 -117 -108 -107 -101 -133 0 -36 -8 -8
0 0 -1 0 0 -30 -0 0 -0 -6 -0 -0 -1 0 0 0 0 0 0 0 0 0 0 0 0 0 0 0 0 0 0 0 0 0 0 0 0 0 -104 0 0 -26 -12 -7
0 -2 0 0 0 -1 0 -1 -3 0 0 0 0 -0 0 0 0 0 0 0 0 0 0 0 0 0 0 0 0 0 0 0 0 0 0 0 0 0 0 0 0 0 0 -9
0 0 -0 0 0 -0 0 -0 0 0 0 0 0 0 0 0 0 0 0 0 0 0 0 0 0 0 0 0 0 0 0 0 0 0 0 0 0 0 0 0 0 0 0 0
-3 -1 -1 0 -0 -1 -0 0 0 -1 0 0 0 0 0 0 0 0 0 0 0 0 0 0 0 0 -0 0 0 0 0 0 0 0 0 0 0 0 0 0 0 0 0 0
-3 -1 -3 -3 -6 -1 0 0 0 0 0 0 0 0 0 0 0 0 0 0 0 0 0 -0 -0 0 -1 -0 0 0 0 0 0 0 0 0 0 0 0 0 0 0 0 0
-3 -23 -2 -6 -3 0 0 0 0 -2 0 0 0 0 0 0 0 0 0 0 0 0 0 -0 0 0 0 0 -0 0 0 0 0 0 0 0 0 0 0 0 0 0 0 0
0 -15 -1 -0 -3 0 0 0 0 0 0 0 0 0 0 0 0 0 0 -0 -0 -0 0 0 0 0 0 0 0 0 0 0 0 0 0 0 0 0 0 0 0 0 0 0
-0 -0 0 0 0 0 0 0 0 0 0 0 0 0 0 0 -0 -0 0 0 0 0 0 0 0 0 0 0 0 0 0 0 0 0 0 0 0 0 0 0 0 0 0 -0
0 -0 -0 0 0 0 -0 0 0 0 0 -0 -0 -0 0 -0 0 -0 0 -0 0 0 0 0 0 0 0 0 0 0 0 0 0 0 0 0 0 0 0 0 0 0 0 0
-0 -0 -0 -0 0 0 0 -0 0 0 0 0 -0 0 0 -0 -0 -0 -0 -0 0 0 -0 -0 0 0 0 0 0 0 0 0 0 0 0 0 0 0 0 0 0 0 -0 0
0 0 0 0 0 0 0 0 -0 0 0 0 0 0 0 0 0 0 -0 0 0 -0 -0 -0 -0 0 -0 0 0 0 0 0 0 0 0 0 0 0 0 0 0 0 -0 0
Wind_Speed
19 16 22 30 28 28 24 26 25 24 26 25 28 27 25 18 19 17 14 10 10 12 8 9 6 8 8 8 9 13 18 17 14 11 11 9 9 6 3 4 11 10 9 11
18 23 30 27 25 29 29 28 26 21 26 16 16 22 18 22 19 17 17 17 16 11 11 12 9 11 9 9 7 7 16 17 14 10 9 8 7 6 6 3 4 7 11 8
24 26 24 27 28 28 27 27 21 20 20 17 16 15 16 17 18 18 17 16 14 14 17 16 15 13 8 9 8 8 9 17 15 12 7 7 8 7 8 9 8 9 6 8
25 27 24 26 29 28 23 24 21 20 14 11 16 13 17 24 24 26 18 14 12 5 6 7 7 7 6 6 8 11 11 13 15 16 13 16 11 10 8 8 8 7 9 6
26 25 23 27 25 26 22 13 11 12 13 17 19 13 13 10 12 14 11 11 7 6 6 7 8 9 10 9 7 7 13 15 17 19 15 13 11 8 8 7 12 8 10 8
28 20 23 24 19 22 13 4 8 10 12 14 21 17 12 12 10 17 14 8 5 6 12 14 15 16 11 8 11 8 10 16 16 20 20 16 14 12 10 11 10 9 6 7
21 14 27 16 17 18 11 12 3 7 8 13 18 16 13 11 13 15 11 12 11 11 12 14 16 17 19 16 20 10 11 15 16 20 20 17 15 12 12 13 11 11 8 7
16 9 20 11 17 14 18 17 7 8 10 11 19 10 14 16 12 9 12 11 14 12 12 13 14 15 17 19 21 19 14 13 16 14 18 17 13 10 9 12 10 9 9 8
7 12 11 13 9 17 20 20 19 5 7 2 8 8 11 13 14 9 10 11 12 13 13 14 16 16 18 18 21 22 22 12 14 14 15 15 12 12 9 10 9 7 11 9
3 4 6 7 6 7 6 11 9 5 6 4 10 10 10 9 8 12 15 14 15 17 17 15 16 18 18 18 20 29 15 12 11 10 14 12 12 11 7 11 8 7 11 10
6 4 9 6 9 11 2 7 5 8 7 3 4 4 9 4 4 16 17 16 16 18 16 15 16 16 18 18 20 20 15 2 7 8 7 7 9 7 6 8 6 7 9 8
12 6 7 15 9 11 13 7 15 3 6 4 4 4 14 17 20 19 20 17 18 19 18 15 15 16 17 20 20 20 18 10 8 6 4 6 6 5 6 6 6 9 8 7
4 4 3 5 7 5 8 17 14 9 3 3 2 4 13 19 19 19 17 17 16 18 18 17 16 16 16 19 20 20 20 6 6 4 3 3 5 6 7 8 10 10 9 7
8 3 5 2 5 8 8 10 7 3 2 6 13 8 18 18 17 16 16 16 17 17 17 17 17 18 15 17 19 19 20 19 2 2 4 4 1 5 6 7 11 10 7 6
6 9 4 9 18 12 7 6 6 6 3 4 13 18 17 15 14 14 14 15 15 16 18 18 17 16 17 17 19 19 18 17 16 12 7 0 4 3 6 4 11 9 6 6
10 2 8 10 12 22 10 5 11 16 18 19 13 12 14 13 13 16 15 15 14 13 14 17 18 18 17 16 18 17 17 17 16 15 15 14 9 7 6 7 10 9 7 5
10 6 6 10 12 11 12 16 17 20 19 12 12 9 10 12 15 15 14 14 12 12 11 13 14 14 14 15 15 16 16 15 17 17 17 17 15 13 10 6 8 8 5 5
3 7 3 2 1 5 5 19 21 22 20 18 15 12 9 11 10 12 11 11 11 11 11 11 11 13 11 12 13 12 13 16 17 17 17 17 17 16 15 11 12 11 11 11
4 5 2 2 1 11 12 17 15 10 15 18 15 15 7 9 6 14 12 10 10 9 7 6 8 8 12 13 12 13 14 14 18 17 15 16 17 15 16 15 12 10 12 12
6 7 4 2 4 1 7 20 19 14 7 15 15 15 15 4 3 5 10 10 11 13 9 11 12 11 12 13 13 14 14 18 16 14 13 14 13 13 14 14 12 9 13 11
7 6 7 4 4 6 15 22 16 3 5 7 12 13 14 9 5 5 7 7 8 9 14 12 13 12 13 12 13 15 13 14 12 11 10 13 11 11 12 12 9 9 11 8
8 6 6 7 6 4 23 7 8 2 3 8 9 11 10 9 8 8 6 6 9 10 12 14 13 13 14 14 13 14 13 10 10 11 13 14 11 11 11 10 7 8 7 9
6 5 4 6 4 4 8 10 8 9 9 10 10 10 8 8 8 6 8 10 11 13 13 13 13 13 13 15 15 14 14 9 10 10 12 11 12 12 12 13 11 7 11 9
5 10 4 6 6 8 8 9 9 9 8 7 8 9 8 8 9 9 10 10 11 12 12 12 13 15 14 14 15 14 14 12 10 9 9 9 11 13 14 9 10 11 10 8
5 5 3 6 8 9 9 7 7 8 8 9 8 10 12 11 11 11 11 11 11 12 12 13 13 13 16 15 15 14 14 13 10 10 9 8 8 9 11 14 12 11 13 12
7 5 3 3 4 7 5 5 6 7 8 9 10 10 12 12 11 11 11 11 11 12 12 12 14 14 14 15 15 14 14 13 11 9 7 7 5 5 7 7 9 24 22 24
Wind_Direction
236 225 228 225 225 248 244 245 247 229 236 248 225 237 236 222 229 248 248 245 246 246 251 233 226 221 234 233 214 162 164 165 158 181 194 193 184 158 146 166 171 169 183 196
236 225 232 241 234 233 247 256 253 263 274 273 225 253 223 227 238 235 232 208 217 244 269 261 262 217 208 227 202 162 164 164 167 179 196 202 170 161 163 165 224 193 183 183
241 236 229 237 243 236 233 240 242 249 270 245 255 255 258 262 260 251 250 251 237 211 224 234 230 239 210 204 185 173 173 165 172 170 196 211 119 139 179 186 199 204 194 164
247 242 239 221 234 241 239 229 232 244 273 267 250 260 252 237 232 226 234 229 244 266 350 341 323 310 310 251 186 183 185 175 176 163 189 216 176 170 186 179 187 188 194 181
249 262 239 244 217 230 240 225 245 258 255 267 275 269 259 312 210 173 109 70 47 24 355 326 314 308 306 303 289 204 190 189 177 174 191 209 187 178 169 188 177 192 182 176
246 246 269 228 224 226 232 120 223 234 271 247 244 251 251 256 213 133 110 122 124 60 38 18 2 343 314 282 288 258 208 194 187 174 191 204 197 178 172 177 169 186 188 164
246 255 278 210 225 203 179 184 201 210 218 235 224 236 243 59 70 102 117 87 79 64 47 22 2 340 328 332 312 257 235 210 192 179 184 201 196 181 181 177 176 171 184 179
226 206 233 229 206 184 194 194 210 202 200 220 237 250 224 149 112 129 90 67 75 60 42 26 355 331 328 320 321 336 244 234 188 183 182 192 190 187 193 179 166 178 180 177
219 229 223 258 190 174 183 208 211 315 244 278 182 103 147 169 138 96 83 94 59 52 39 21 348 340 333 328 321 316 294 225 193 184 175 184 180 186 199 164 172 184 163 170
145 181 236 182 43 198 214 183 232 187 215 205 205 168 126 40 57 95 69 52 41 33 23 13 353 345 336 333 327 321 256 222 176 165 170 177 176 191 178 169 175 168 156 153
12 304 171 155 213 167 156 237 221 255 239 275 164 128 77 128 177 83 64 49 42 37 23 12 355 347 344 342 343 342 341 328 93 101 135 129 171 167 170 153 167 129 121 131
195 327 155 200 211 168 194 187 200 255 227 131 57 81 306 66 52 59 55 43 37 35 17 10 6 355 356 357 352 350 339 49 55 74 104 118 129 165 148 160 141 124 128 135
58 198 105 173 294 272 264 183 221 163 278 285 137 115 40 50 56 47 43 38 34 31 18 7 10 8 3 5 358 354 343 25 67 125 176 150 156 183 157 152 137 143 145 146
326 49 326 331 317 161 198 144 182 128 221 305 63 87 47 45 40 39 36 34 30 25 19 14 8 9 3 16 4 1 352 349 17 145 201 203 233 160 154 153 134 133 150 150
45 26 352 316 248 130 144 130 90 94 38 37 55 58 52 50 48 41 35 33 30 19 16 13 8 360 7 17 12 5 2 359 5 19 358 123 117 177 125 146 134 144 143 157
338 304 81 25 61 83 116 174 88 59 30 47 91 82 69 60 54 42 35 28 25 16 12 9 7 5 357 15 29 5 4 8 13 23 22 9 19 49 79 125 136 132 143 151
340 350 30 44 85 97 49 47 71 67 50 43 38 38 55 57 48 38 27 22 14 9 7 3 1 360 0 2 42 8 8 15 23 25 24 22 16 28 29 51 82 77 73 145
338 351 37 38 51 62 98 80 83 67 38 41 45 40 77 95 87 58 37 19 9 1 7 5 359 359 354 3 16 23 15 24 25 25 26 22 24 28 22 30 57 59 65 57
2 285 285 174 137 137 45 19 0 26 47 18 24 21 110 152 145 56 32 14 2 346 352 3 1 1 9 9 10 33 24 34 30 19 16 28 25 28 35 21 30 57 70 69
14 328 258 266 145 214 24 335 327 318 62 8 18 25 14 48 83 40 17 12 3 348 359 29 26 24 26 13 11 31 26 32 27 10 8 20 28 31 42 40 10 35 73 75
2 355 10 2 76 84 346 324 305 355 29 9 17 36 43 56 61 36 15 18 7 5 359 21 39 33 29 28 25 34 32 38 17 17 11 24 17 27 47 57 23 2 64 68
39 332 25 353 40 51 352 23 54 357 46 24 37 36 53 62 57 43 24 8 28 20 20 23 33 36 30 26 28 32 36 30 24 32 32 29 18 32 35 40 45 30 34 61
50 28 50 25 71 70 36 69 50 56 54 32 29 31 52 51 62 55 32 32 29 30 21 22 29 35 34 29 22 25 19 37 39 39 45 39 38 30 42 46 36 24 40 45
75 29 75 172 86 74 70 66 55 50 56 52 37 27 30 45 39 44 42 33 32 31 31 25 27 31 32 27 27 17 12 8 42 40 57 55 48 41 40 45 41 44 29 31
21 41 31 94 128 116 78 55 55 49 38 33 50 49 26 32 37 48 44 34 39 33 30 32 29 32 28 25 21 16 12 10 23 37 33 46 65 62 55 50 44 48 50 48
2 18 11 69 39 80 86 63 48 45 45 35 36 34 47 31 40 45 46 37 35 35 34 36 32 32 33 23 19 12 11 15 18 24 28 22 37 72 84 80 64 57 57 56